When you browse on this site, cookies collect data to enhance your experience and personalize the content and advertising you see.
Visit our Privacy Policy to learn more. By continuing to use the site, you agree to this use of cookies and data.
  • In Schweiz
  • Länderverzeichnis
  • Für 7 Tage
  • Wassertemperatur
  • Wetterkarte
  • Widgets
  • user-avatar
    Anmelden

    Stündliche Wetter Hruschevka

    Heute, 23 September, Montag

    Zeit Temperatur Niederschläge Wind Luftdruck Luftfeuchtigkeit
    00:00 -1°C° 0 mm 6 m/S 734 mmHg 85%
    01:00 -1°C° 0 mm 6 m/S 735 mmHg 86%
    02:00 0°C° 0 mm 5 m/S 736 mmHg 87%
    03:00 0°C° 0 mm 5 m/S 736 mmHg 89%
    04:00 0°C° 0 mm 5 m/S 737 mmHg 84%
    05:00 +1°C° 0 mm 5 m/S 737 mmHg 80%
    06:00 +1°C° 0 mm 6 m/S 737 mmHg 76%
    07:00 +1°C° 0 mm 6 m/S 738 mmHg 74%
    08:00 +2°C° 0 mm 6 m/S 739 mmHg 73%
    09:00 +2°C° 0 mm 6 m/S 739 mmHg 70%
    10:00 +3°C° 0 mm 6 m/S 739 mmHg 68%
    11:00 +4°C° 0 mm 6 m/S 740 mmHg 66%
    12:00 +4°C° 0 mm 6 m/S 740 mmHg 64%
    13:00 +5°C° 0 mm 6 m/S 740 mmHg 62%
    14:00 +7°C° 0 mm 6 m/S 740 mmHg 60%
    15:00 +7°C° 0 mm 6 m/S 740 mmHg 57%
    16:00 +7°C° 0 mm 6 m/S 740 mmHg 59%
    17:00 +6°C° 0 mm 5 m/S 741 mmHg 60%
    18:00 +6°C° 0 mm 5 m/S 741 mmHg 62%
    19:00 +5°C° 0 mm 4 m/S 741 mmHg 65%
    20:00 +4°C° 0 mm 4 m/S 741 mmHg 68%
    21:00 +3°C° 0 mm 3 m/S 742 mmHg 71%
    22:00 +2°C° 0 mm 3 m/S 742 mmHg 73%
    23:00 +1°C° 0 mm 3 m/S 742 mmHg 74%

    Morgen, 24 September, Dienstag

    Zeit Temperatur Niederschläge Wind Luftdruck Luftfeuchtigkeit
    00:00 0°C° 0 mm 3 m/S 742 mmHg 76%
    01:00 0°C° 0 mm 3 m/S 742 mmHg 77%
    02:00 0°C° 0 mm 3 m/S 742 mmHg 78%
    03:00 -1°C° 0 mm 3 m/S 743 mmHg 79%
    04:00 -1°C° 0 mm 3 m/S 742 mmHg 81%
    05:00 -1°C° 0 mm 3 m/S 742 mmHg 83%
    06:00 -1°C° 0 mm 3 m/S 742 mmHg 85%
    07:00 0°C° 0 mm 3 m/S 742 mmHg 80%
    08:00 0°C° 0 mm 4 m/S 743 mmHg 75%
    09:00 +3°C° 0 mm 4 m/S 743 mmHg 70%
    10:00 +3°C° 0 mm 4 m/S 743 mmHg 69%
    11:00 +4°C° 0 mm 4 m/S 742 mmHg 68%
    12:00 +4°C° 0 mm 4 m/S 742 mmHg 67%
    13:00 +4°C° 0.1 mm 4 m/S 742 mmHg 66%
    14:00 +5°C° 0.1 mm 4 m/S 742 mmHg 64%
    15:00 +5°C° 0.1 mm 4 m/S 742 mmHg 62%
    16:00 +5°C° 0 mm 3 m/S 742 mmHg 65%
    17:00 +4°C° 0 mm 3 m/S 742 mmHg 68%
    18:00 +5°C° 0 mm 2 m/S 742 mmHg 71%
    19:00 +4°C° 0 mm 2 m/S 742 mmHg 75%
    20:00 +3°C° 0 mm 2 m/S 742 mmHg 80%
    21:00 +2°C° 0 mm 2 m/S 742 mmHg 85%
    22:00 +2°C° 0 mm 2 m/S 742 mmHg 87%
    23:00 +1°C° 0 mm 2 m/S 743 mmHg 89%

    übermorgen, 25 September, Mittwoch

    Zeit Temperatur Niederschläge Wind Luftdruck Luftfeuchtigkeit
    00:00 +1°C° 0 mm 2 m/S 743 mmHg 91%
    01:00 +1°C° 0 mm 2 m/S 743 mmHg 92%
    02:00 -1°C° 0 mm 2 m/S 743 mmHg 93%
    03:00 -1°C° 0 mm 2 m/S 743 mmHg 94%
    04:00 -1°C° 0 mm 2 m/S 743 mmHg 93%
    05:00 -1°C° 0 mm 2 m/S 743 mmHg 93%
    06:00 -2°C° 0 mm 2 m/S 743 mmHg 93%
    07:00 +1°C° 0 mm 2 m/S 743 mmHg 88%
    08:00 +2°C° 0 mm 2 m/S 743 mmHg 82%
    09:00 +4°C° 0 mm 2 m/S 744 mmHg 77%
    10:00 +5°C° 0 mm 2 m/S 744 mmHg 73%
    11:00 +6°C° 0 mm 2 m/S 744 mmHg 69%
    12:00 +7°C° 0 mm 3 m/S 744 mmHg 64%
    13:00 +7°C° 0.1 mm 3 m/S 744 mmHg 63%
    14:00 +8°C° 0.1 mm 3 m/S 743 mmHg 61%
    15:00 +8°C° 0.1 mm 3 m/S 743 mmHg 59%
    16:00 +7°C° 0.1 mm 3 m/S 743 mmHg 63%
    17:00 +6°C° 0.1 mm 2 m/S 743 mmHg 68%
    18:00 +6°C° 0.1 mm 2 m/S 742 mmHg 72%
    19:00 +5°C° 0 mm 2 m/S 743 mmHg 74%
    20:00 +6°C° 0 mm 1 m/S 743 mmHg 77%
    21:00 +5°C° 0 mm 1 m/S 743 mmHg 79%
    22:00 +5°C° 0 mm 1 m/S 743 mmHg 80%
    23:00 +4°C° 0 mm 2 m/S 743 mmHg 80%

    26 September, Donnerstag

    Zeit Temperatur Niederschläge Wind Luftdruck Luftfeuchtigkeit
    00:00 +4°C° 0 mm 2 m/S 743 mmHg 81%
    01:00 +3°C° 0 mm 2 m/S 743 mmHg 82%
    02:00 +3°C° 0 mm 2 m/S 743 mmHg 83%
    03:00 +2°C° 0 mm 2 m/S 743 mmHg 85%
    04:00 +2°C° 0 mm 2 m/S 743 mmHg 85%
    05:00 +3°C° 0 mm 1 m/S 743 mmHg 86%
    06:00 +2°C° 0 mm 1 m/S 743 mmHg 86%
    07:00 +4°C° 0 mm 1 m/S 743 mmHg 82%
    08:00 +5°C° 0 mm 1 m/S 743 mmHg 77%
    09:00 +6°C° 0 mm 1 m/S 744 mmHg 72%
    10:00 +8°C° 0 mm 1 m/S 744 mmHg 67%
    11:00 +8°C° 0 mm 2 m/S 744 mmHg 62%
    12:00 +9°C° 0 mm 2 m/S 744 mmHg 56%
    13:00 +9°C° 0 mm 2 m/S 744 mmHg 55%
    14:00 +10°C° 0 mm 2 m/S 743 mmHg 53%
    15:00 +10°C° 0 mm 2 m/S 743 mmHg 51%
    16:00 +9°C° 0 mm 2 m/S 743 mmHg 55%
    17:00 +8°C° 0 mm 2 m/S 743 mmHg 60%
    18:00 +8°C° 0 mm 1 m/S 743 mmHg 64%
    19:00 +7°C° 0 mm 1 m/S 743 mmHg 66%
    20:00 +7°C° 0 mm 1 m/S 743 mmHg 68%
    21:00 +6°C° 0 mm 1 m/S 743 mmHg 70%
    22:00 +6°C° 0 mm 1 m/S 743 mmHg 71%
    23:00 +5°C° 0 mm 1 m/S 743 mmHg 72%

    27 September, Freitag

    Zeit Temperatur Niederschläge Wind Luftdruck Luftfeuchtigkeit
    00:00 +5°C° 0 mm 1 m/S 743 mmHg 74%
    01:00 +5°C° 0 mm 1 m/S 743 mmHg 74%
    02:00 +4°C° 0 mm 1 m/S 743 mmHg 75%
    03:00 +4°C° 0 mm 1 m/S 743 mmHg 76%
    04:00 +4°C° 0 mm 1 m/S 743 mmHg 77%
    05:00 +4°C° 0 mm 1 m/S 743 mmHg 78%
    06:00 +3°C° 0 mm 1 m/S 743 mmHg 79%
    07:00 +5°C° 0 mm 1 m/S 743 mmHg 74%
    08:00 +6°C° 0 mm 1 m/S 743 mmHg 69%
    09:00 +7°C° 0 mm 2 m/S 743 mmHg 64%
    10:00 +8°C° 0 mm 2 m/S 743 mmHg 61%
    11:00 +10°C° 0 mm 2 m/S 743 mmHg 57%
    12:00 +12°C° 0 mm 2 m/S 743 mmHg 54%
    13:00 +11°C° 0 mm 3 m/S 743 mmHg 54%
    14:00 +12°C° 0 mm 3 m/S 743 mmHg 55%
    15:00 +12°C° 0 mm 3 m/S 742 mmHg 55%
    16:00 +11°C° 0 mm 3 m/S 742 mmHg 60%
    17:00 +10°C° 0 mm 2 m/S 742 mmHg 66%
    18:00 +9°C° 0 mm 2 m/S 742 mmHg 71%
    19:00 +9°C° 0 mm 1 m/S 742 mmHg 72%
    20:00 +9°C° 0 mm 1 m/S 743 mmHg 73%
    21:00 +8°C° 0 mm 1 m/S 743 mmHg 74%
    22:00 +8°C° 0 mm 1 m/S 743 mmHg 74%
    23:00 +6°C° 0 mm 0 m/S 743 mmHg 73%

    28 September, Samstag

    Zeit Temperatur Niederschläge Wind Luftdruck Luftfeuchtigkeit
    00:00 +6°C° 0 mm 0 m/S 743 mmHg 73%
    01:00 +6°C° 0 mm 0 m/S 744 mmHg 75%
    02:00 +5°C° 0 mm 0 m/S 744 mmHg 77%
    03:00 +5°C° 0 mm 0 m/S 744 mmHg 78%
    04:00 +5°C° 0 mm 0 m/S 744 mmHg 79%
    05:00 +4°C° 0 mm 0 m/S 744 mmHg 80%
    06:00 +4°C° 0 mm 0 m/S 744 mmHg 81%
    07:00 +5°C° 0 mm 0 m/S 744 mmHg 77%
    08:00 +7°C° 0 mm 0 m/S 745 mmHg 72%
    09:00 +8°C° 0 mm 0 m/S 745 mmHg 67%
    10:00 +9°C° 0 mm 0 m/S 745 mmHg 62%
    11:00 +11°C° 0 mm 0 m/S 745 mmHg 58%
    12:00 +12°C° 0 mm 0 m/S 746 mmHg 53%
    13:00 +13°C° 0 mm 1 m/S 745 mmHg 52%
    14:00 +14°C° 0 mm 1 m/S 745 mmHg 50%
    15:00 +14°C° 0 mm 1 m/S 745 mmHg 48%
    16:00 +13°C° 0 mm 1 m/S 745 mmHg 54%
    17:00 +12°C° 0 mm 1 m/S 744 mmHg 59%
    18:00 +10°C° 0 mm 0 m/S 744 mmHg 65%
    19:00 +11°C° 0 mm 1 m/S 744 mmHg 67%
    20:00 +11°C° 0 mm 1 m/S 745 mmHg 69%
    21:00 +9°C° 0 mm 2 m/S 745 mmHg 71%
    22:00 +9°C° 0 mm 2 m/S 745 mmHg 72%
    23:00 +9°C° 0 mm 2 m/S 745 mmHg 73%
    Mehr zeigen